START_TIME,STEP,MOV.,M34,t_acc.,L5,t_acc.,L18,t_acc.,L14,t_acc.
1980-11-14 03:00:13.260 ,4,0,0.,12.0,0.,12.0,0.,12.0,0.,12.0
1980-11-14 03:00:25.260 ,4,0,0.,12.0,0.,12.0,0.,12.0,0.,12.0
1980-11-14 03:00:37.260 ,5,1,0.,12.0,0.,12.0,0.,12.0,0.,12.0
1980-11-14 03:00:49.260 ,5,1,0.,12.0,0.,12.0,0.,12.0,0.,12.0
1980-11-14 03:01:01.260 ,5,0,0.,12.0,0.,12.0,0.,12.0,1.,12.0
1980-11-14 03:01:13.260 ,5,0,0.,12.0,0.,12.0,0.,12.0,2.,12.0
1980-11-14 03:01:25.260 ,6,1,0.,12.0,0.,12.0,0.,12.0,0.,12.0
1980-11-14 03:01:37.260 ,6,1,0.,12.0,0.,12.0,0.,12.0,0.,12.0
1980-11-14 03:01:49.260 ,6,0,0.,12.0,0.,12.0,0.,12.0,0.,12.0
1980-11-14 03:02:01.260 ,6,0,0.,12.0,0.,12.0,0.,12.0,0.,12.0
1980-11-14 03:02:13.260 ,7,1,0.,12.0,0.,12.0,0.,12.0,0.,12.0
1980-11-14 03:02:25.260 ,7,1,0.,12.0,1.,12.0,0.,12.0,0.,12.0
1980-11-14 03:02:37.260 ,7,0,0.,12.0,4.,12.0,0.,12.0,0.,12.0
1980-11-14 03:02:49.260 ,7,0,0.,12.0,5.,12.0,0.,12.0,0.,12.0
1980-11-14 03:03:01.260 ,7,1,0.,12.0,4.,12.0,0.,12.0,0.,12.0
1980-11-14 03:03:13.260 ,7,1,0.,12.0,3.,12.0,0.,12.0,0.,12.0
1980-11-14 03:03:25.260 ,7,0,0.,12.0,0.,12.0,0.,12.0,0.,12.0
1980-11-14 03:03:37.260 ,7,0,0.,12.0,3.,12.0,0.,12.0,0.,12.0
1980-11-14 03:03:49.260 ,6,1,0.,12.0,3.,12.0,0.,12.0,0.,12.0
1980-11-14 03:04:01.260 ,6,1,0.,12.0,1.,12.0,0.,12.0,0.,12.0
1980-11-14 03:04:13.260 ,0,0,0.,12.0,0.,12.0,0.,12.0,0.,12.0
1980-11-14 03:04:25.260 ,0,0,0.,12.0,0.,12.0,0.,12.0,0.,12.0
1980-11-14 03:07:01.260 ,0,0,0.,12.0,0.,12.0,0.,12.0,0.,12.0
1980-11-14 03:07:13.260 ,0,0,0.,12.0,0.,12.0,0.,12.0,0.,12.0
1980-11-14 03:07:25.260 ,0,0,0.,12.0,0.,12.0,0.,12.0,0.,12.0
1980-11-14 03:07:37.260 ,0,0,0.,12.0,0.,12.0,0.,12.0,0.,12.0
1980-11-14 03:07:49.260 ,1,1,0.,12.0,0.,12.0,0.,12.0,0.,12.0
1980-11-14 03:08:01.260 ,1,1,0.,12.0,0.,12.0,0.,12.0,0.,12.0
1980-11-14 03:08:13.260 ,1,0,0.,12.0,0.,12.0,0.,12.0,0.,12.0
1980-11-14 03:08:25.260 ,1,0,0.,12.0,0.,12.0,0.,12.0,1.,12.0
1980-11-14 03:08:37.260 ,0,1,0.,12.0,0.,12.0,0.,12.0,0.,12.0
1980-11-14 03:08:49.260 ,0,1,0.,12.0,0.,12.0,0.,12.0,0.,12.0
1980-11-14 03:09:01.260 ,0,0,0.,12.0,0.,12.0,0.,12.0,0.,12.0
1980-11-14 03:09:13.260 ,0,0,0.,12.0,0.,12.0,0.,12.0,0.,12.0
1980-11-14 03:09:25.260 ,0,1,0.,12.0,0.,12.0,0.,12.0,0.,12.0
1980-11-14 03:09:37.260 ,0,1,0.,12.0,0.,12.0,0.,12.0,0.,12.0
1980-11-14 03:09:49.260 ,0,0,0.,12.0,0.,12.0,0.,12.0,0.,12.0
1980-11-14 03:10:01.260 ,0,0,0.,12.0,0.,12.0,0.,12.0,0.,12.0
1980-11-14 03:10:13.260 ,1,1,0.,12.0,0.,12.0,0.,12.0,0.,12.0
1980-11-14 03:10:25.260 ,1,1,0.,12.0,0.,12.0,0.,12.0,0.,12.0
1980-11-14 03:10:37.260 ,1,0,0.,12.0,0.,12.0,0.,12.0,0.,12.0
1980-11-14 03:10:49.260 ,1,0,0.,12.0,0.,12.0,0.,12.0,0.,12.0
1980-11-14 03:11:01.260 ,2,1,0.,12.0,0.,12.0,0.,12.0,0.,12.0
1980-11-14 03:11:13.260 ,2,1,0.,12.0,0.,12.0,0.,12.0,0.,12.0
1980-11-14 03:11:25.260 ,2,0,0.,12.0,0.,12.0,0.,12.0,0.,12.0
1980-11-14 03:11:37.260 ,2,0,0.,12.0,0.,12.0,0.,12.0,0.,12.0
1980-11-14 03:11:49.260 ,3,1,0.,12.0,0.,12.0,0.,12.0,0.,12.0
1980-11-14 03:12:01.260 ,3,1,0.,12.0,0.,12.0,0.,12.0,0.,12.0
1980-11-14 03:12:13.260 ,3,0,0.,12.0,0.,12.0,0.,12.0,1.,12.0
1980-11-14 03:12:25.260 ,3,0,0.,12.0,0.,12.0,0.,12.0,0.,12.0
1980-11-14 03:12:37.260 ,4,1,0.,12.0,0.,12.0,0.,12.0,1.,12.0
1980-11-14 03:12:49.260 ,4,1,0.,12.0,0.,12.0,0.,12.0,0.,12.0
1980-11-14 03:13:01.260 ,4,0,0.,12.0,0.,12.0,0.,12.0,2.,12.0
1980-11-14 03:13:13.260 ,4,0,0.,12.0,0.,12.0,0.,12.0,0.,12.0
1980-11-14 03:13:25.260 ,5,1,0.,12.0,0.,12.0,0.,12.0,0.,12.0
1980-11-14 03:13:37.260 ,5,1,0.,12.0,0.,12.0,0.,12.0,0.,12.0
1980-11-14 03:13:49.260 ,5,0,0.,12.0,0.,12.0,0.,12.0,1.,12.0
1980-11-14 03:14:01.260 ,5,0,0.,12.0,0.,12.0,0.,12.0,0.,12.0
1980-11-14 03:14:13.260 ,6,1,0.,12.0,0.,12.0,0.,12.0,0.,12.0
1980-11-14 03:14:25.260 ,6,1,0.,12.0,0.,12.0,0.,12.0,0.,12.0
1980-11-14 03:14:37.260 ,6,0,0.,12.0,0.,12.0,0.,12.0,0.,12.0
1980-11-14 03:14:49.260 ,6,0,0.,12.0,0.,12.0,0.,12.0,0.,12.0
1980-11-14 03:15:01.260 ,7,1,0.,12.0,0.,12.0,0.,12.0,0.,12.0
1980-11-14 03:15:13.260 ,7,1,0.,12.0,3.,12.0,0.,12.0,0.,12.0
1980-11-14 03:15:25.260 ,7,0,0.,12.0,2.,12.0,0.,12.0,0.,12.0
1980-11-14 03:15:37.260 ,7,0,0.,12.0,6.,12.0,0.,12.0,1.,12.0
1980-11-14 03:15:49.260 ,7,1,0.,12.0,4.,12.0,0.,12.0,0.,12.0
1980-11-14 03:16:01.260 ,7,1,0.,12.0,2.,12.0,0.,12.0,0.,12.0
1980-11-14 03:16:13.260 ,7,0,0.,12.0,5.,12.0,0.,12.0,0.,12.0
1980-11-14 03:16:25.260 ,7,0,0.,12.0,2.,12.0,0.,12.0,0.,12.0
1980-11-14 03:16:37.260 ,6,1,0.,12.0,3.,12.0,0.,12.0,1.,12.0
1980-11-14 03:16:49.260 ,6,1,0.,12.0,1.,12.0,0.,12.0,0.,12.0
1980-11-14 03:17:01.260 ,6,0,0.,12.0,0.,12.0,0.,12.0,0.,12.0
1980-11-14 03:17:13.260 ,6,0,0.,12.0,0.,12.0,0.,12.0,0.,12.0
1980-11-14 03:17:25.260 ,5,1,0.,12.0,0.,12.0,0.,12.0,0.,12.0
1980-11-14 03:17:37.260 ,5,1,0.,12.0,0.,12.0,0.,12.0,0.,12.0
1980-11-14 03:17:49.260 ,5,0,0.,12.0,0.,12.0,0.,12.0,0.,12.0
1980-11-14 03:18:01.260 ,5,0,0.,12.0,0.,12.0,0.,12.0,0.,12.0
1980-11-14 03:18:13.260 ,4,1,0.,12.0,0.,12.0,0.,12.0,0.,12.0
1980-11-14 03:18:25.260 ,4,1,0.,12.0,0.,12.0,0.,12.0,0.,12.0
1980-11-14 03:18:37.260 ,4,0,0.,12.0,0.,12.0,0.,12.0,0.,12.0
1980-11-14 03:18:49.260 ,4,0,0.,12.0,0.,12.0,0.,12.0,0.,12.0
1980-11-14 03:19:01.260 ,3,1,0.,12.0,0.,12.0,0.,12.0,0.,12.0
1980-11-14 03:19:13.260 ,3,1,0.,12.0,0.,12.0,0.,12.0,0.,12.0
1980-11-14 03:19:25.260 ,3,0,0.,12.0,0.,12.0,0.,12.0,0.,12.0
1980-11-14 03:19:37.260 ,3,0,0.,12.0,0.,12.0,0.,12.0,0.,12.0
1980-11-14 03:19:49.260 ,2,1,0.,12.0,0.,12.0,0.,12.0,0.,12.0
1980-11-14 03:20:01.260 ,2,1,0.,12.0,0.,12.0,0.,12.0,0.,12.0
1980-11-14 03:20:13.260 ,2,0,0.,12.0,0.,12.0,0.,12.0,0.,12.0
1980-11-14 03:20:25.260 ,2,0,0.,12.0,0.,12.0,0.,12.0,1.,12.0
1980-11-14 03:20:37.260 ,1,1,0.,12.0,0.,12.0,0.,12.0,0.,12.0
1980-11-14 03:20:49.260 ,1,1,0.,12.0,0.,12.0,0.,12.0,0.,12.0
1980-11-14 03:21:01.260 ,1,0,0.,12.0,0.,12.0,0.,12.0,0.,12.0
1980-11-14 03:21:13.260 ,1,0,0.,12.0,0.,12.0,0.,12.0,0.,12.0
1980-11-14 03:21:25.260 ,0,1,0.,12.0,0.,12.0,0.,12.0,0.,12.0
1980-11-14 03:21:37.260 ,0,1,0.,12.0,0.,12.0,0.,12.0,1.,12.0
1980-11-14 03:21:49.260 ,0,0,0.,12.0,0.,12.0,0.,12.0,0.,12.0
1980-11-14 03:22:01.260 ,0,0,0.,12.0,0.,12.0,0.,12.0,0.,12.0
1980-11-14 03:22:13.260 ,0,1,0.,12.0,0.,12.0,0.,12.0,0.,12.0
1980-11-14 03:22:25.260 ,0,1,0.,12.0,0.,12.0,0.,12.0,0.,12.0
1980-11-14 03:22:37.260 ,0,0,0.,12.0,0.,12.0,0.,12.0,0.,12.0
1980-11-14 03:22:49.260 ,0,0,0.,12.0,0.,12.0,0.,12.0,1.,12.0
1980-11-14 03:23:01.260 ,1,1,0.,12.0,0.,12.0,0.,12.0,0.,12.0
1980-11-14 03:23:13.260 ,1,1,0.,12.0,0.,12.0,0.,12.0,0.,12.0
1980-11-14 03:23:25.260 ,1,0,0.,12.0,0.,12.0,0.,12.0,1.,12.0
1980-11-14 03:23:37.260 ,1,0,0.,12.0,0.,12.0,0.,12.0,0.,12.0
1980-11-14 03:23:49.260 ,2,1,0.,12.0,0.,12.0,0.,12.0,0.,12.0
1980-11-14 03:24:01.260 ,2,1,0.,12.0,0.,12.0,0.,12.0,0.,12.0
1980-11-14 03:24:13.260 ,2,0,0.,12.0,0.,12.0,0.,12.0,0.,12.0
1980-11-14 03:24:25.260 ,2,0,0.,12.0,0.,12.0,0.,12.0,0.,12.0
1980-11-14 03:24:37.260 ,3,1,0.,12.0,0.,12.0,0.,12.0,0.,12.0
1980-11-14 03:24:49.260 ,3,1,0.,12.0,0.,12.0,0.,12.0,0.,12.0
1980-11-14 03:25:01.260 ,3,0,0.,12.0,0.,12.0,0.,12.0,0.,12.0
1980-11-14 03:25:13.260 ,3,0,0.,12.0,0.,12.0,0.,12.0,0.,12.0
1980-11-14 03:25:25.260 ,4,1,0.,12.0,0.,12.0,0.,12.0,0.,12.0
1980-11-14 03:25:37.260 ,4,1,0.,12.0,0.,12.0,0.,12.0,0.,12.0
1980-11-14 03:25:49.260 ,4,0,0.,12.0,0.,12.0,0.,12.0,0.,12.0
1980-11-14 03:26:01.260 ,4,0,0.,12.0,0.,12.0,0.,12.0,0.,12.0
1980-11-14 03:26:13.260 ,5,1,0.,12.0,0.,12.0,0.,12.0,0.,12.0
1980-11-14 03:26:25.260 ,5,1,0.,12.0,0.,12.0,0.,12.0,0.,12.0
1980-11-14 03:26:37.260 ,5,0,0.,12.0,0.,12.0,0.,12.0,0.,12.0
1980-11-14 03:26:49.260 ,5,0,0.,12.0,0.,12.0,0.,12.0,0.,12.0
1980-11-14 03:27:01.260 ,6,1,0.,12.0,0.,12.0,0.,12.0,1.,12.0
1980-11-14 03:27:13.260 ,6,1,0.,12.0,0.,12.0,0.,12.0,0.,12.0
1980-11-14 03:27:25.260 ,6,0,0.,12.0,0.,12.0,0.,12.0,0.,12.0
1980-11-14 03:27:37.260 ,6,0,0.,12.0,0.,12.0,0.,12.0,0.,12.0
1980-11-14 03:27:49.260 ,7,1,0.,12.0,0.,12.0,0.,12.0,1.,12.0
1980-11-14 03:28:01.260 ,7,1,0.,12.0,2.,12.0,0.,12.0,0.,12.0
1980-11-14 03:28:13.260 ,0,0,0.,12.0,1.,12.0,0.,12.0,0.,12.0
1980-11-14 03:28:25.260 ,0,0,0.,12.0,4.,12.0,0.,12.0,0.,12.0
1980-11-14 03:32:31.260 ,0,0,,0,,0,,0,,0
1980-11-14 03:32:43.260 ,0,0,,0,,0,,0,,0
1980-11-14 03:32:37.260 ,2,1,0.,12.0,0.,12.0,0.,12.0,0.,12.0
1980-11-14 03:32:49.260 ,2,1,0.,12.0,0.,12.0,0.,12.0,0.,12.0
1980-11-14 03:33:01.260 ,2,0,0.,12.0,0.,12.0,0.,12.0,0.,12.0
1980-11-14 03:33:13.260 ,2,0,0.,12.0,0.,12.0,0.,12.0,0.,12.0
1980-11-14 03:33:25.260 ,1,1,0.,12.0,0.,12.0,0.,12.0,0.,12.0
1980-11-14 03:33:37.260 ,1,1,0.,12.0,0.,12.0,0.,12.0,0.,12.0
1980-11-14 03:33:49.260 ,1,0,0.,12.0,0.,12.0,0.,12.0,0.,12.0
1980-11-14 03:34:01.260 ,1,0,0.,12.0,0.,12.0,0.,12.0,0.,12.0
1980-11-14 03:34:13.260 ,0,1,0.,12.0,0.,12.0,0.,12.0,0.,12.0
1980-11-14 03:34:25.260 ,0,1,0.,12.0,0.,12.0,0.,12.0,1.,12.0
1980-11-14 03:34:37.260 ,0,0,0.,12.0,0.,12.0,0.,12.0,0.,12.0
1980-11-14 03:34:49.260 ,0,0,0.,12.0,0.,12.0,0.,12.0,1.,12.0
1980-11-14 03:35:01.260 ,0,1,0.,12.0,0.,12.0,0.,12.0,0.,12.0
1980-11-14 03:35:13.260 ,0,1,0.,12.0,0.,12.0,0.,12.0,0.,12.0
1980-11-14 03:35:25.260 ,0,0,0.,12.0,0.,12.0,0.,12.0,0.,12.0
1980-11-14 03:35:37.260 ,0,0,0.,12.0,0.,12.0,0.,12.0,0.,12.0
1980-11-14 03:35:49.260 ,1,1,0.,12.0,0.,12.0,0.,12.0,0.,12.0
1980-11-14 03:36:01.260 ,1,1,0.,12.0,0.,12.0,0.,12.0,0.,12.0
1980-11-14 03:36:13.260 ,1,0,0.,12.0,0.,12.0,0.,12.0,0.,12.0
1980-11-14 03:36:25.260 ,1,0,0.,12.0,0.,12.0,0.,12.0,0.,12.0
1980-11-14 03:36:37.260 ,2,1,0.,12.0,0.,12.0,0.,12.0,0.,12.0
1980-11-14 03:36:49.260 ,2,1,0.,12.0,0.,12.0,0.,12.0,0.,12.0
1980-11-14 03:37:01.260 ,2,0,0.,12.0,0.,12.0,0.,12.0,0.,12.0
1980-11-14 03:37:13.260 ,2,0,0.,12.0,0.,12.0,0.,12.0,0.,12.0
1980-11-14 03:37:25.260 ,3,1,0.,12.0,0.,12.0,0.,12.0,0.,12.0
1980-11-14 03:37:37.260 ,3,1,0.,12.0,0.,12.0,0.,12.0,0.,12.0
1980-11-14 03:37:49.260 ,3,0,0.,12.0,0.,12.0,0.,12.0,0.,12.0
1980-11-14 03:38:01.260 ,3,0,0.,12.0,0.,12.0,0.,12.0,1.,12.0
1980-11-14 03:38:13.260 ,4,1,0.,12.0,0.,12.0,0.,12.0,1.,12.0
1980-11-14 03:38:25.260 ,4,1,0.,12.0,0.,12.0,0.,12.0,0.,12.0
1980-11-14 03:38:37.260 ,4,0,0.,12.0,0.,12.0,0.,12.0,0.,12.0
1980-11-14 03:38:49.260 ,4,0,0.,12.0,0.,12.0,0.,12.0,0.,12.0
1980-11-14 03:39:01.260 ,5,1,0.,12.0,0.,12.0,0.,12.0,0.,12.0
1980-11-14 03:39:13.260 ,5,1,0.,12.0,0.,12.0,0.,12.0,0.,12.0
1980-11-14 03:39:25.260 ,5,0,0.,12.0,0.,12.0,0.,12.0,0.,12.0
1980-11-14 03:39:37.260 ,5,0,0.,12.0,0.,12.0,0.,12.0,0.,12.0
1980-11-14 03:39:49.260 ,6,1,0.,12.0,0.,12.0,0.,12.0,0.,12.0
1980-11-14 03:40:01.260 ,6,1,0.,12.0,0.,12.0,0.,12.0,0.,12.0
1980-11-14 03:40:13.260 ,6,0,0.,12.0,0.,12.0,0.,12.0,0.,12.0
1980-11-14 03:40:25.260 ,6,0,0.,12.0,0.,12.0,0.,12.0,0.,12.0
1980-11-14 03:40:37.260 ,7,1,0.,12.0,0.,12.0,0.,12.0,1.,12.0
1980-11-14 03:40:49.260 ,7,1,0.,12.0,4.,12.0,0.,12.0,0.,12.0
1980-11-14 03:41:01.260 ,7,0,0.,12.0,3.,12.0,0.,12.0,1.,12.0
1980-11-14 03:41:13.260 ,7,0,0.,12.0,6.,12.0,0.,12.0,0.,12.0
1980-11-14 03:41:25.260 ,7,1,0.,12.0,5.,12.0,0.,12.0,0.,12.0
1980-11-14 03:41:37.260 ,7,1,0.,12.0,6.,12.0,0.,12.0,0.,12.0
1980-11-14 03:41:49.260 ,7,0,0.,12.0,2.,12.0,0.,12.0,0.,12.0
1980-11-14 03:42:01.260 ,7,0,0.,12.0,5.,12.0,0.,12.0,0.,12.0
1980-11-14 03:42:13.260 ,6,1,0.,12.0,7.,12.0,0.,12.0,0.,12.0
1980-11-14 03:42:25.260 ,6,1,0.,12.0,0.,12.0,0.,12.0,0.,12.0
1980-11-14 03:42:37.260 ,6,0,0.,12.0,0.,12.0,0.,12.0,0.,12.0
1980-11-14 03:42:49.260 ,6,0,0.,12.0,0.,12.0,0.,12.0,0.,12.0
1980-11-14 03:43:01.260 ,5,1,0.,12.0,0.,12.0,0.,12.0,1.,12.0
1980-11-14 03:43:13.260 ,5,1,0.,12.0,0.,12.0,0.,12.0,0.,12.0
1980-11-14 03:43:25.260 ,5,0,0.,12.0,0.,12.0,0.,12.0,0.,12.0
1980-11-14 03:43:37.260 ,5,0,0.,12.0,0.,12.0,0.,12.0,0.,12.0
1980-11-14 03:43:49.260 ,4,1,0.,12.0,0.,12.0,0.,12.0,0.,12.0
1980-11-14 03:44:01.260 ,4,1,0.,12.0,0.,12.0,0.,12.0,0.,12.0
1980-11-14 03:44:13.260 ,4,0,0.,12.0,0.,12.0,0.,12.0,0.,12.0
1980-11-14 03:44:25.260 ,4,0,0.,12.0,0.,12.0,0.,12.0,0.,12.0
1980-11-14 03:44:37.260 ,3,1,0.,12.0,0.,12.0,0.,12.0,0.,12.0
1980-11-14 03:44:49.260 ,3,1,0.,12.0,0.,12.0,0.,12.0,0.,12.0
1980-11-14 03:45:01.260 ,3,0,0.,12.0,0.,12.0,0.,12.0,0.,12.0
1980-11-14 03:45:13.260 ,3,0,0.,12.0,0.,12.0,0.,12.0,0.,12.0
1980-11-14 03:45:25.260 ,2,1,,0,,0,,0,,0
1980-11-14 03:45:37.260 ,2,1,0.,12.0,0.,12.0,0.,12.0,0.,12.0
1980-11-14 03:45:49.260 ,2,0,0.,12.0,0.,12.0,0.,12.0,0.,12.0
1980-11-14 03:46:01.260 ,2,0,0.,12.0,0.,12.0,0.,12.0,0.,12.0
1980-11-14 03:46:13.260 ,1,1,0.,12.0,0.,12.0,0.,12.0,0.,12.0
1980-11-14 03:46:25.260 ,1,1,0.,12.0,0.,12.0,0.,12.0,1.,12.0
1980-11-14 03:46:37.260 ,1,0,0.,12.0,0.,12.0,0.,12.0,1.,12.0
1980-11-14 03:46:49.260 ,1,0,0.,12.0,0.,12.0,0.,12.0,0.,12.0
1980-11-14 03:47:01.260 ,0,1,0.,12.0,0.,12.0,0.,12.0,0.,12.0
1980-11-14 03:47:13.260 ,0,1,0.,12.0,0.,12.0,0.,12.0,0.,12.0
1980-11-14 03:47:25.260 ,0,0,0.,12.0,0.,12.0,0.,12.0,0.,12.0
1980-11-14 03:47:37.260 ,0,0,0.,12.0,0.,12.0,0.,12.0,0.,12.0
1980-11-14 03:47:49.260 ,0,1,0.,12.0,0.,12.0,0.,12.0,0.,12.0
1980-11-14 03:48:01.260 ,0,1,0.,12.0,0.,12.0,0.,12.0,0.,12.0
1980-11-14 03:48:13.260 ,0,0,0.,12.0,0.,12.0,0.,12.0,0.,12.0
1980-11-14 03:48:25.260 ,0,0,0.,12.0,0.,12.0,0.,12.0,0.,12.0
1980-11-14 03:48:37.260 ,1,1,0.,12.0,0.,12.0,0.,12.0,0.,12.0
1980-11-14 03:48:49.260 ,1,1,0.,12.0,0.,12.0,0.,12.0,0.,12.0
1980-11-14 03:49:01.260 ,1,0,0.,12.0,0.,12.0,0.,12.0,0.,12.0
1980-11-14 03:49:13.260 ,1,0,0.,12.0,0.,12.0,0.,12.0,0.,12.0
1980-11-14 03:49:25.260 ,2,1,0.,12.0,0.,12.0,0.,12.0,0.,12.0
1980-11-14 03:49:37.260 ,2,1,0.,12.0,0.,12.0,0.,12.0,0.,12.0
1980-11-14 03:49:49.260 ,2,0,0.,12.0,0.,12.0,0.,12.0,0.,12.0
1980-11-14 03:50:01.260 ,2,0,0.,12.0,0.,12.0,0.,12.0,0.,12.0
1980-11-14 03:50:13.260 ,3,1,0.,12.0,0.,12.0,0.,12.0,0.,12.0
1980-11-14 03:50:25.260 ,3,1,0.,12.0,0.,12.0,0.,12.0,0.,12.0
1980-11-14 03:50:37.260 ,3,0,0.,12.0,0.,12.0,0.,12.0,0.,12.0
1980-11-14 03:50:49.260 ,3,0,0.,12.0,0.,12.0,0.,12.0,0.,12.0
1980-11-14 03:51:01.260 ,4,1,0.,12.0,0.,12.0,0.,12.0,0.,12.0
1980-11-14 03:51:13.260 ,4,1,0.,12.0,0.,12.0,0.,12.0,0.,12.0
1980-11-14 03:51:25.260 ,4,0,0.,12.0,0.,12.0,0.,12.0,0.,12.0
1980-11-14 03:51:37.260 ,4,0,0.,12.0,0.,12.0,0.,12.0,0.,12.0
1980-11-14 03:51:49.260 ,5,1,0.,12.0,0.,12.0,0.,12.0,0.,12.0
1980-11-14 03:52:01.260 ,5,1,0.,12.0,0.,12.0,0.,12.0,1.,12.0
1980-11-14 03:52:13.260 ,5,0,0.,12.0,0.,12.0,0.,12.0,0.,12.0
1980-11-14 03:52:25.260 ,5,0,0.,12.0,0.,12.0,0.,12.0,0.,12.0
1980-11-14 03:52:37.260 ,6,1,0.,12.0,0.,12.0,0.,12.0,0.,12.0
1980-11-14 03:52:49.260 ,6,1,0.,12.0,0.,12.0,0.,12.0,0.,12.0
1980-11-14 03:53:01.260 ,6,0,0.,12.0,0.,12.0,0.,12.0,0.,12.0
1980-11-14 03:53:13.260 ,6,0,0.,12.0,0.,12.0,0.,12.0,0.,12.0
1980-11-14 03:53:25.260 ,7,1,0.,12.0,0.,12.0,0.,12.0,0.,12.0
1980-11-14 03:53:37.260 ,7,1,0.,12.0,1.,12.0,0.,12.0,0.,12.0
1980-11-14 03:53:49.260 ,7,0,0.,12.0,4.,12.0,0.,12.0,0.,12.0
1980-11-14 03:54:01.260 ,7,0,0.,12.0,4.,12.0,0.,12.0,0.,12.0
1980-11-14 03:54:13.260 ,7,1,0.,12.0,3.,12.0,0.,12.0,0.,12.0
1980-11-14 03:54:25.260 ,7,1,0.,12.0,2.,12.0,0.,12.0,0.,12.0
1980-11-14 03:54:37.260 ,7,0,0.,12.0,2.,12.0,0.,12.0,0.,12.0
1980-11-14 03:54:49.260 ,7,0,0.,12.0,1.,12.0,0.,12.0,0.,12.0
1980-11-14 03:55:01.260 ,6,1,0.,12.0,3.,12.0,0.,12.0,0.,12.0
1980-11-14 03:55:13.260 ,6,1,0.,12.0,2.,12.0,0.,12.0,0.,12.0
1980-11-14 03:55:25.260 ,6,0,0.,12.0,0.,12.0,0.,12.0,0.,12.0
1980-11-14 03:55:37.260 ,6,0,0.,12.0,0.,12.0,0.,12.0,0.,12.0
1980-11-14 03:55:49.260 ,5,1,0.,12.0,0.,12.0,0.,12.0,0.,12.0
1980-11-14 03:56:01.260 ,5,1,0.,12.0,0.,12.0,0.,12.0,0.,12.0
1980-11-14 03:56:13.260 ,5,0,0.,12.0,0.,12.0,0.,12.0,0.,12.0
1980-11-14 03:56:25.260 ,5,0,0.,12.0,0.,12.0,0.,12.0,1.,12.0
1980-11-14 03:56:37.260 ,4,1,0.,12.0,0.,12.0,0.,12.0,0.,12.0
1980-11-14 03:56:49.260 ,4,1,0.,12.0,0.,12.0,0.,12.0,0.,12.0
1980-11-14 03:57:01.260 ,4,0,0.,12.0,0.,12.0,0.,12.0,0.,12.0
1980-11-14 03:57:13.260 ,4,0,0.,12.0,0.,12.0,0.,12.0,0.,12.0
1980-11-14 03:57:25.260 ,3,1,0.,12.0,0.,12.0,0.,12.0,0.,12.0
1980-11-14 03:57:37.260 ,3,1,0.,12.0,0.,12.0,0.,12.0,0.,12.0
1980-11-14 03:57:49.260 ,3,0,0.,12.0,0.,12.0,0.,12.0,0.,12.0
1980-11-14 03:58:01.260 ,3,0,0.,12.0,0.,12.0,0.,12.0,0.,12.0
1980-11-14 03:58:13.260 ,2,1,0.,12.0,0.,12.0,0.,12.0,0.,12.0
1980-11-14 03:58:25.260 ,2,1,0.,12.0,0.,12.0,0.,12.0,0.,12.0
1980-11-14 03:58:37.260 ,2,0,0.,12.0,0.,12.0,0.,12.0,0.,12.0
1980-11-14 03:58:49.260 ,2,0,0.,12.0,0.,12.0,0.,12.0,0.,12.0
1980-11-14 03:59:01.260 ,1,1,0.,12.0,0.,12.0,0.,12.0,0.,12.0
1980-11-14 03:59:13.260 ,1,1,0.,12.0,0.,12.0,0.,12.0,0.,12.0
1980-11-14 03:59:25.260 ,1,0,0.,12.0,0.,12.0,0.,12.0,1.,12.0
1980-11-14 03:59:37.260 ,1,0,0.,12.0,0.,12.0,0.,12.0,0.,12.0
1980-11-14 03:59:49.260 ,0,1,0.,12.0,0.,12.0,0.,12.0,0.,12.0
1980-11-14 04:00:01.260 ,0,1,0.,12.0,0.,12.0,0.,12.0,0.,12.0
1980-11-14 04:00:13.260 ,0,0,0.,12.0,0.,12.0,0.,12.0,0.,12.0
1980-11-14 04:00:25.260 ,0,0,0.,12.0,0.,12.0,0.,12.0,0.,12.0
1980-11-14 04:00:37.260 ,0,1,0.,12.0,0.,12.0,0.,12.0,1.,12.0
1980-11-14 04:00:49.260 ,0,1,0.,12.0,0.,12.0,0.,12.0,0.,12.0
1980-11-14 04:01:01.260 ,0,0,0.,12.0,0.,12.0,0.,12.0,0.,12.0
1980-11-14 04:01:13.260 ,0,0,0.,12.0,0.,12.0,0.,12.0,0.,12.0
1980-11-14 04:01:25.260 ,1,1,0.,12.0,0.,12.0,0.,12.0,0.,12.0
1980-11-14 04:01:37.260 ,1,1,0.,12.0,0.,12.0,0.,12.0,0.,12.0
1980-11-14 04:01:49.260 ,1,0,0.,12.0,0.,12.0,0.,12.0,0.,12.0
1980-11-14 04:02:01.260 ,1,0,0.,12.0,0.,12.0,0.,12.0,0.,12.0
1980-11-14 04:02:13.260 ,2,1,0.,12.0,0.,12.0,0.,12.0,0.,12.0
1980-11-14 04:02:25.260 ,2,1,0.,12.0,0.,12.0,0.,12.0,0.,12.0
1980-11-14 04:02:37.260 ,2,0,0.,12.0,0.,12.0,0.,12.0,0.,12.0
1980-11-14 04:02:49.260 ,2,0,0.,12.0,0.,12.0,0.,12.0,0.,12.0
1980-11-14 04:03:01.260 ,3,1,0.,12.0,0.,12.0,0.,12.0,0.,12.0
1980-11-14 04:03:13.260 ,3,1,0.,12.0,0.,12.0,0.,12.0,0.,12.0
1980-11-14 04:03:25.260 ,3,0,0.,12.0,0.,12.0,0.,12.0,0.,12.0
1980-11-14 04:03:37.260 ,3,0,0.,12.0,0.,12.0,0.,12.0,0.,12.0
1980-11-14 04:03:49.260 ,4,1,0.,12.0,0.,12.0,0.,12.0,0.,12.0
1980-11-14 04:04:01.260 ,4,1,0.,12.0,0.,12.0,0.,12.0,0.,12.0
1980-11-14 04:04:13.260 ,4,0,0.,12.0,0.,12.0,0.,12.0,0.,12.0
1980-11-14 04:04:25.260 ,4,0,0.,12.0,0.,12.0,0.,12.0,1.,12.0
1980-11-14 04:04:37.260 ,5,1,0.,12.0,0.,12.0,0.,12.0,0.,12.0
1980-11-14 04:04:49.260 ,5,1,0.,12.0,0.,12.0,0.,12.0,1.,12.0
1980-11-14 04:05:01.260 ,5,0,0.,12.0,0.,12.0,0.,12.0,0.,12.0
1980-11-14 04:05:13.260 ,5,0,0.,12.0,0.,12.0,0.,12.0,0.,12.0
1980-11-14 04:05:25.260 ,6,1,0.,12.0,0.,12.0,0.,12.0,0.,12.0
1980-11-14 04:05:37.260 ,6,1,0.,12.0,0.,12.0,0.,12.0,1.,12.0
1980-11-14 04:05:49.260 ,6,0,0.,12.0,0.,12.0,0.,12.0,0.,12.0
1980-11-14 04:06:01.260 ,6,0,0.,12.0,0.,12.0,0.,12.0,0.,12.0
1980-11-14 04:06:13.260 ,7,1,0.,12.0,0.,12.0,0.,12.0,0.,12.0
1980-11-14 04:06:25.260 ,7,1,0.,12.0,2.,12.0,0.,12.0,0.,12.0
1980-11-14 04:06:37.260 ,7,0,0.,12.0,2.,12.0,0.,12.0,0.,12.0
1980-11-14 04:06:49.260 ,7,0,0.,12.0,6.,12.0,0.,12.0,0.,12.0
1980-11-14 04:07:01.260 ,7,1,0.,12.0,5.,12.0,0.,12.0,0.,12.0
1980-11-14 04:07:13.260 ,7,1,0.,12.0,2.,12.0,0.,12.0,0.,12.0
1980-11-14 04:07:25.260 ,7,0,0.,12.0,5.,12.0,0.,12.0,0.,12.0
1980-11-14 04:07:37.260 ,7,0,0.,12.0,4.,12.0,0.,12.0,0.,12.0
1980-11-14 04:07:49.260 ,6,1,0.,12.0,4.,12.0,0.,12.0,0.,12.0
1980-11-14 04:08:01.260 ,6,1,0.,12.0,1.,12.0,0.,12.0,0.,12.0
1980-11-14 04:08:13.260 ,6,0,0.,12.0,0.,12.0,0.,12.0,0.,12.0
1980-11-14 04:08:25.260 ,6,0,0.,12.0,0.,12.0,0.,12.0,0.,12.0
1980-11-14 04:08:37.260 ,5,1,0.,12.0,0.,12.0,0.,12.0,0.,12.0
1980-11-14 04:08:49.260 ,5,1,0.,12.0,0.,12.0,0.,12.0,0.,12.0
1980-11-14 04:09:01.260 ,5,0,0.,12.0,0.,12.0,0.,12.0,1.,12.0
1980-11-14 04:09:13.260 ,5,0,0.,12.0,0.,12.0,0.,12.0,0.,12.0
1980-11-14 04:09:25.260 ,4,1,0.,12.0,0.,12.0,0.,12.0,0.,12.0
1980-11-14 04:09:37.260 ,4,1,0.,12.0,0.,12.0,0.,12.0,0.,12.0
1980-11-14 04:09:49.260 ,4,0,0.,12.0,0.,12.0,0.,12.0,0.,12.0
1980-11-14 04:10:01.260 ,4,0,0.,12.0,0.,12.0,0.,12.0,0.,12.0
1980-11-14 04:10:13.260 ,3,1,0.,12.0,0.,12.0,0.,12.0,0.,12.0
1980-11-14 04:10:25.260 ,3,1,0.,12.0,0.,12.0,0.,12.0,0.,12.0
1980-11-14 04:10:37.260 ,3,0,0.,12.0,0.,12.0,0.,12.0,0.,12.0
1980-11-14 04:10:49.260 ,3,0,0.,12.0,0.,12.0,0.,12.0,1.,12.0
1980-11-14 04:11:01.260 ,2,1,0.,12.0,0.,12.0,0.,12.0,0.,12.0
1980-11-14 04:11:13.260 ,2,1,0.,12.0,0.,12.0,0.,12.0,0.,12.0
1980-11-14 04:11:25.260 ,2,0,0.,12.0,0.,12.0,0.,12.0,0.,12.0
1980-11-14 04:11:37.260 ,2,0,0.,12.0,0.,12.0,0.,12.0,0.,12.0
1980-11-14 04:11:49.260 ,1,1,0.,12.0,0.,12.0,0.,12.0,0.,12.0
1980-11-14 04:12:01.260 ,1,1,0.,12.0,0.,12.0,0.,12.0,0.,12.0
1980-11-14 04:12:13.260 ,1,0,0.,12.0,0.,12.0,0.,12.0,0.,12.0
1980-11-14 04:12:25.260 ,1,0,0.,12.0,0.,12.0,0.,12.0,0.,12.0
1980-11-14 04:12:37.260 ,0,1,0.,12.0,0.,12.0,0.,12.0,1.,12.0
1980-11-14 04:12:49.260 ,0,1,0.,12.0,0.,12.0,0.,12.0,0.,12.0
1980-11-14 04:13:01.260 ,0,0,0.,12.0,0.,12.0,0.,12.0,0.,12.0
1980-11-14 04:13:13.260 ,0,0,0.,12.0,0.,12.0,0.,12.0,0.,12.0
1980-11-14 04:13:25.260 ,0,1,0.,12.0,0.,12.0,0.,12.0,0.,12.0
1980-11-14 04:13:37.260 ,0,1,0.,12.0,0.,12.0,0.,12.0,0.,12.0
1980-11-14 04:13:49.260 ,0,0,0.,12.0,0.,12.0,0.,12.0,0.,12.0
1980-11-14 04:14:01.260 ,0,0,0.,12.0,0.,12.0,0.,12.0,0.,12.0
1980-11-14 04:14:13.260 ,1,1,0.,12.0,0.,12.0,0.,12.0,0.,12.0
1980-11-14 04:14:25.260 ,1,1,0.,12.0,0.,12.0,0.,12.0,0.,12.0
1980-11-14 04:14:37.260 ,1,0,0.,12.0,0.,12.0,0.,12.0,0.,12.0
1980-11-14 04:14:49.260 ,1,0,0.,12.0,0.,12.0,0.,12.0,0.,12.0
1980-11-14 04:15:01.260 ,2,1,0.,12.0,0.,12.0,0.,12.0,0.,12.0
1980-11-14 04:15:13.260 ,2,1,0.,12.0,0.,12.0,0.,12.0,0.,12.0
1980-11-14 04:15:25.260 ,2,0,0.,12.0,0.,12.0,0.,12.0,0.,12.0
1980-11-14 04:15:37.260 ,2,0,0.,12.0,0.,12.0,0.,12.0,0.,12.0
1980-11-14 04:15:49.260 ,3,1,0.,12.0,0.,12.0,0.,12.0,0.,12.0
1980-11-14 04:16:01.260 ,3,1,0.,12.0,0.,12.0,0.,12.0,0.,12.0
1980-11-14 04:16:13.260 ,3,0,0.,12.0,0.,12.0,0.,12.0,0.,12.0
1980-11-14 04:16:25.260 ,3,0,0.,12.0,0.,12.0,0.,12.0,1.,12.0
1980-11-14 04:16:37.260 ,4,1,0.,12.0,0.,12.0,0.,12.0,0.,12.0
1980-11-14 04:16:49.260 ,4,1,0.,12.0,0.,12.0,0.,12.0,0.,12.0
1980-11-14 04:17:01.260 ,4,0,0.,12.0,0.,12.0,0.,12.0,0.,12.0
1980-11-14 04:17:13.260 ,4,0,0.,12.0,0.,12.0,0.,12.0,0.,12.0
1980-11-14 04:17:25.260 ,5,1,0.,12.0,0.,12.0,0.,12.0,0.,12.0
1980-11-14 04:17:37.260 ,5,1,0.,12.0,0.,12.0,0.,12.0,0.,12.0
1980-11-14 04:17:49.260 ,5,0,0.,12.0,0.,12.0,0.,12.0,0.,12.0
1980-11-14 04:18:01.260 ,5,0,0.,12.0,0.,12.0,0.,12.0,0.,12.0
1980-11-14 04:18:13.260 ,6,1,0.,12.0,0.,12.0,0.,12.0,0.,12.0
1980-11-14 04:18:25.260 ,6,1,0.,12.0,0.,12.0,0.,12.0,0.,12.0
1980-11-14 04:18:37.260 ,6,0,0.,12.0,0.,12.0,0.,12.0,0.,12.0
1980-11-14 04:18:49.260 ,6,0,0.,12.0,0.,12.0,0.,12.0,0.,12.0
1980-11-14 04:19:01.260 ,7,1,0.,12.0,0.,12.0,0.,12.0,1.,12.0
1980-11-14 04:19:13.260 ,7,1,0.,12.0,2.,12.0,0.,12.0,0.,12.0
1980-11-14 04:19:25.260 ,7,0,0.,12.0,4.,12.0,0.,12.0,0.,12.0
1980-11-14 04:19:37.260 ,7,0,0.,12.0,4.,12.0,0.,12.0,0.,12.0
1980-11-14 04:19:49.260 ,7,1,0.,12.0,0.,12.0,0.,12.0,0.,12.0
1980-11-14 04:20:01.260 ,7,1,0.,12.0,5.,12.0,0.,12.0,0.,12.0
1980-11-14 04:20:13.260 ,7,0,0.,12.0,6.,12.0,0.,12.0,0.,12.0
1980-11-14 04:20:25.260 ,7,0,0.,12.0,2.,12.0,0.,12.0,0.,12.0
1980-11-14 04:20:37.260 ,6,1,0.,12.0,6.,12.0,0.,12.0,0.,12.0
1980-11-14 04:20:49.260 ,6,1,0.,12.0,1.,12.0,0.,12.0,0.,12.0
1980-11-14 04:21:01.260 ,0,0,0.,12.0,0.,12.0,0.,12.0,0.,12.0
1980-11-14 04:21:13.260 ,0,0,0.,12.0,0.,12.0,0.,12.0,0.,12.0
1980-11-14 04:21:48.660 ,0,0,,0,,0,,0,,0
1980-11-14 04:22:00.660 ,0,0,,0,,0,,0,,0
1980-11-14 04:21:49.260 ,0,0,0.,12.0,0.,12.0,0.,12.0,0.,12.0
1980-11-14 04:22:01.260 ,0,0,0.,12.0,0.,12.0,0.,12.0,0.,12.0
1980-11-14 04:22:13.260 ,4,1,0.,12.0,0.,12.0,0.,12.0,0.,12.0
1980-11-14 04:22:25.260 ,4,1,0.,12.0,0.,12.0,0.,12.0,0.,12.0
1980-11-14 04:22:37.260 ,4,0,0.,12.0,0.,12.0,0.,12.0,0.,12.0
1980-11-14 04:22:49.260 ,4,0,0.,12.0,0.,12.0,0.,12.0,0.,12.0
1980-11-14 04:23:01.260 ,3,1,0.,12.0,0.,12.0,0.,12.0,0.,12.0
1980-11-14 04:23:13.260 ,3,1,0.,12.0,0.,12.0,0.,12.0,0.,12.0
1980-11-14 04:23:25.260 ,3,0,0.,12.0,0.,12.0,0.,12.0,0.,12.0